Temperature
6 6 6 6 6 6 6 6 5 5 5 6 6 7 7 7 7 7 7 7 7 7 7 7 7 7 7 7 6 6 6 6 6 6 6 6 6 6
5 5 5 5 5 5 5 5 5 5 4 5 6 6 6 6 6 6 6 7 7 7 7 6 6 6 6 6 6 6 6 6 6 6 6 6 6 6
5 4 4 4 4 4 4 4 4 4 4 5 5 5 5 5 6 6 6 6 6 6 6 6 6 6 6 5 5 5 5 5 5 5 5 5 5 6
4 4 4 3 3 4 4 4 4 4 3 4 4 4 4 5 5 5 5 5 5 6 6 6 5 5 5 5 5 5 5 5 5 5 5 5 5 5
3 3 3 3 3 3 3 3 3 3 3 3 3 4 4 4 4 4 4 5 5 5 5 5 5 5 5 5 5 5 4 4 4 4 4 4 4 4
3 3 3 3 3 3 3 2 2 2 2 2 2 3 3 3 3 3 4 4 4 4 4 4 4 4 4 4 4 4 4 4 4 4 4 4 4 4
2 2 2 2 2 2 2 2 2 2 2 2 2 2 2 2 2 2 2 3 3 3 3 4 3 4 4 4 4 4 4 4 4 3 3 3 3 3
2 2 2 2 1 1 1 1 1 1 1 1 1 1 1 1 1 1 1 1 1 2 2 3 2 3 3 3 3 3 3 3 3 3 3 3 3 3
1 1 1 1 1 1 1 1 1 1 1 1 1 1 1 1 1 1 1 0 1 1 1 1 2 2 2 2 2 2 2 2 2 2 3 3 3 3
0 0 1 1 1 1 1 1 1 1 0 0 0 0 1 0 0 0 -0 -0 0 1 0 0 1 1 1 2 2 2 2 2 2 2 2 2 2 2
-0 -0 -0 -0 0 0 0 0 0 0 0 0 0 0 0 0 -0 -0 -0 -1 -1 -0 -0 -1 -0 0 1 1 1 1 1 1 2 2 2 2 2 2
-0 -1 -1 -1 -1 -1 -1 -1 -1 -1 -0 -0 -0 0 -0 -0 -0 -1 -1 -1 -2 -2 -1 -1 -1 -1 -1 0 0 1 1 1 1 1 1 1 1 1
-1 -1 -1 -1 -1 -1 -1 -1 -1 -1 -1 -1 -1 -1 -0 -1 -1 -1 -1 -2 -2 -2 -1 -2 -2 -2 -2 -1 -0 -0 0 0 1 1 1 1 1 1
-2 -2 -2 -2 -2 -2 -2 -2 -2 -2 -2 -1 -1 -1 -1 -1 -1 -1 -1 -1 -2 -2 -1 -2 -2 -2 -2 -2 -1 -1 -0 -0 0 0 1 1 1 1
-3 -3 -3 -3 -2 -2 -2 -2 -2 -2 -2 -2 -2 -2 -2 -1 -1 -1 -1 -2 -2 -1 -2 -2 -2 -2 -2 -2 -2 -1 -1 -1 -0 -0 -0 0 0 0
-3 -3 -3 -3 -3 -3 -3 -2 -2 -3 -3 -3 -3 -3 -2 -2 -2 -2 -2 -2 -2 -2 -2 -2 -2 -2 -2 -2 -2 -2 -2 -1 -1 -1 -0 -0 -0 -0
-3 -3 -3 -3 -3 -3 -3 -3 -3 -3 -3 -3 -3 -3 -3 -3 -3 -3 -3 -3 -3 -3 -3 -2 -2 -2 -2 -2 -2 -2 -2 -2 -1 -1 -1 -1 -1 -1
-4 -4 -4 -4 -4 -4 -4 -4 -4 -4 -4 -4 -4 -4 -4 -4 -3 -3 -4 -4 -4 -4 -3 -3 -3 -3 -2 -2 -2 -2 -2 -2 -2 -1 -1 -1 -1 -1
-4 -4 -4 -4 -5 -5 -5 -5 -4 -4 -4 -4 -4 -4 -4 -4 -4 -4 -4 -4 -4 -4 -4 -4 -3 -3 -3 -3 -3 -3 -3 -3 -2 -2 -2 -1 -1 -1
-5 -5 -5 -5 -5 -5 -5 -5 -5 -5 -5 -5 -5 -5 -5 -5 -5 -5 -5 -5 -5 -5 -4 -4 -4 -4 -4 -4 -4 -3 -3 -3 -3 -2 -2 -2 -2 -1
-5 -5 -5 -5 -6 -6 -6 -6 -6 -6 -5 -5 -5 -5 -5 -5 -5 -5 -5 -5 -5 -5 -5 -5 -4 -4 -4 -4 -4 -4 -3 -3 -3 -3 -3 -2 -2 -2
-5 -5 -5 -6 -6 -6 -6 -6 -6 -6 -6 -6 -6 -5 -5 -5 -5 -5 -5 -5 -5 -5 -5 -5 -4 -4 -4 -4 -4 -4 -4 -3 -3 -3 -3 -3 -3 -3
-5 -5 -6 -6 -6 -6 -6 -6 -6 -6 -6 -6 -6 -6 -6 -6 -6 -5 -5 -5 -5 -5 -5 -5 -5 -5 -4 -4 -4 -4 -4 -4 -4 -3 -3 -3 -3 -3
Wind_Speed
3 4 3 3 3 3 3 3 4 5 6 4 3 3 4 6 7 7 8 9 10 11 12 12 12 13 13 14 14 14 14 15 15 15 16 16 16 17
3 3 3 3 3 3 3 3 4 5 6 4 3 3 5 5 7 7 9 9 10 12 12 11 12 13 13 14 13 14 14 14 15 16 16 16 16 17
3 3 4 3 3 3 3 3 4 4 7 5 4 4 4 5 6 6 8 8 9 11 11 12 12 13 13 13 13 13 14 14 14 15 16 16 16 17
4 4 4 3 3 3 3 4 4 4 5 7 5 4 5 5 5 6 6 7 7 10 11 12 12 13 13 13 12 13 13 14 14 14 15 16 16 17
4 4 5 4 4 4 4 4 4 4 4 5 6 5 4 4 4 6 6 5 6 9 10 11 11 12 13 12 12 13 13 13 13 14 14 15 15 16
4 4 5 5 6 5 4 5 4 4 4 5 5 5 4 4 3 5 6 4 5 6 8 9 10 11 12 12 12 12 12 12 13 13 13 13 13 15
3 4 5 5 6 5 5 4 5 5 4 5 5 5 5 4 4 4 7 6 6 5 5 6 6 6 7 10 11 11 12 13 13 13 13 12 12 13
3 4 4 5 6 6 7 7 7 7 6 6 6 6 6 5 4 5 6 6 6 3 4 7 5 7 6 6 10 12 12 13 13 13 13 12 12 13
3 3 3 4 5 5 6 7 8 9 9 7 8 8 7 6 6 6 6 7 7 6 6 8 5 7 6 8 12 12 12 13 13 12 12 12 12 13
4 4 4 4 5 5 4 5 5 6 7 6 7 7 7 6 6 6 6 6 6 5 4 6 6 6 7 7 11 12 12 12 12 12 12 12 12 12
4 4 4 4 6 7 4 4 5 5 6 6 7 7 7 7 6 4 4 4 6 5 3 4 5 6 6 6 8 11 11 12 12 12 12 12 12 11
4 4 6 6 7 7 4 4 5 5 4 5 5 6 5 5 5 4 4 5 5 5 3 2 4 4 4 4 4 6 8 10 12 11 11 11 10 7
3 4 4 7 8 7 6 4 5 5 4 4 4 4 3 3 3 4 4 5 6 6 4 3 4 4 4 5 5 5 5 6 6 8 9 9 9 6
4 4 4 7 7 7 5 5 6 5 3 3 4 4 4 4 4 4 5 5 6 7 7 5 4 5 5 7 6 4 5 5 5 5 5 7 8 8
4 6 7 8 6 5 5 6 5 3 3 3 4 4 4 4 4 4 3 4 4 5 5 6 5 5 5 6 6 5 5 5 4 5 5 5 4 4
4 5 7 7 6 5 5 4 3 3 3 3 4 4 3 3 3 3 4 4 4 5 4 5 5 6 6 7 6 7 6 4 4 5 5 5 4 4
4 3 2 3 3 3 4 3 2 2 3 3 3 3 3 3 3 3 3 3 3 5 6 4 4 4 5 5 5 6 5 5 5 4 4 5 4 4
4 3 3 3 3 3 4 4 3 3 3 3 3 3 3 3 3 3 3 3 4 4 5 4 4 4 3 3 5 5 4 5 5 4 4 4 4 3
3 3 3 3 3 3 3 4 4 4 3 3 3 3 3 3 3 3 3 4 4 4 4 4 3 3 4 5 3 3 4 5 4 4 3 3 4 4
2 3 4 4 4 4 4 4 4 4 3 3 3 3 3 3 3 4 4 4 4 4 4 3 3 3 4 4 4 4 5 4 3 3 3 3 2 2
3 4 4 4 4 4 4 4 4 4 4 4 4 4 4 4 4 4 4 6 5 4 4 5 5 5 3 1 2 3 3 4 3 2 1 1 2 1
4 4 4 4 4 4 4 4 4 4 4 4 4 4 4 4 4 5 4 4 4 4 5 4 3 3 2 2 3 3 3 4 4 4 4 3 1 0
4 4 4 4 4 4 4 4 5 5 5 4 4 4 4 4 4 4 4 4 4 4 4 3 3 2 2 2 2 2 2 3 2 3 4 7 7 6
Wind_Direction
239 239 241 249 235 233 230 221 227 251 254 245 240 240 269 268 265 262 268 269 270 268 268 270 273 275 276 276 276 275 276 278 280 278 275 276 277 278
233 233 245 251 248 233 230 244 239 241 253 250 255 274 277 281 275 272 268 271 266 266 267 269 272 272 273 274 276 276 276 277 277 278 278 278 278 279
243 236 244 241 237 244 238 236 239 243 259 275 278 279 278 283 288 284 277 270 269 267 268 271 271 270 270 272 273 274 275 275 275 277 279 279 279 277
241 233 238 235 231 234 238 246 245 244 252 269 280 274 267 264 278 280 280 279 274 270 271 271 271 271 270 271 272 274 275 274 274 276 276 276 278 278
244 238 237 226 231 233 238 246 254 260 256 261 274 280 278 268 282 291 278 267 281 279 273 270 270 272 271 271 273 274 275 273 273 274 275 275 276 277
249 245 243 233 231 232 238 242 253 259 257 257 268 276 279 275 272 286 293 284 285 290 281 278 275 273 272 272 273 276 276 276 277 277 278 278 276 275
260 249 247 246 245 245 246 243 247 252 258 259 264 271 274 284 278 281 291 297 284 267 272 275 274 265 266 269 271 274 275 276 278 279 279 278 277 276
279 277 261 248 253 259 260 258 254 251 251 256 262 259 270 274 275 281 290 295 290 269 287 282 269 270 269 264 273 275 274 276 276 276 276 275 275 274
286 292 296 281 271 252 259 263 260 258 255 251 255 258 263 262 266 275 278 284 282 283 290 280 269 269 273 275 281 282 278 276 276 276 276 274 274 272
296 287 283 280 277 276 263 262 260 258 261 253 249 254 255 255 254 263 271 284 286 270 262 274 281 279 284 276 272 280 285 282 278 276 275 274 273 271
301 293 287 285 293 295 281 275 279 280 292 283 279 277 272 269 268 269 273 281 289 282 253 262 280 292 283 269 274 282 287 287 286 281 278 276 271 266
314 311 306 302 298 300 284 273 276 282 288 297 293 289 274 267 270 256 257 269 285 282 250 267 278 301 295 268 267 279 287 288 288 284 282 277 271 257
311 312 310 317 312 310 302 278 282 292 287 281 283 278 274 270 267 261 259 258 267 271 265 279 275 278 270 286 286 273 277 282 283 279 281 279 270 259
309 308 305 314 319 322 316 311 306 301 289 284 279 276 274 277 282 276 275 270 262 262 261 259 260 264 275 281 285 286 280 274 278 282 281 277 267 263
317 321 321 319 321 324 320 314 311 298 288 284 285 286 285 282 290 294 293 294 290 274 257 250 251 259 260 265 273 281 290 281 269 276 280 272 258 255
326 326 330 335 335 325 317 314 305 287 281 274 285 291 299 302 298 302 304 310 310 309 293 267 249 247 263 263 260 272 279 274 277 279 276 272 264 252
318 320 325 330 337 334 331 324 311 301 294 289 286 294 303 306 308 316 311 312 298 303 312 316 307 274 255 257 259 264 274 283 281 279 276 270 263 254
317 309 310 315 315 314 315 317 310 301 297 294 286 285 290 294 300 313 315 307 301 304 306 309 320 327 320 286 239 260 277 286 294 287 271 263 264 264
321 309 306 306 306 306 304 304 302 302 296 291 288 284 286 289 292 296 302 306 305 303 302 303 309 312 309 303 288 250 274 296 301 296 279 267 257 262
300 296 298 298 298 297 296 297 300 303 300 292 286 282 279 279 283 286 286 291 296 301 302 299 288 283 277 275 284 295 285 277 281 280 294 306 300 299
286 287 289 290 291 292 292 291 290 289 291 287 277 273 273 271 275 279 283 292 296 293 294 294 292 302 296 292 301 305 306 303 300 272 283 312 329 338
277 279 281 281 282 283 286 286 287 284 282 280 276 272 270 266 267 272 277 283 284 285 289 295 310 321 319 299 296 300 318 337 352 18 36 36 93 213
269 273 276 278 279 278 278 279 281 281 275 272 272 273 272 275 274 273 277 280 286 292 300 305 318 324 307 287 294 309 326 345 4 31 29 27 43 53
Height
1447 1448 1449 1450 1450 1451 1452 1454 1455 1454 1452 1453 1454 1455 1455 1456 1456 1456 1456 1456 1456 1456 1456 1456 1456 1455 1455 1455 1454 1454 1453 1452 1451 1450 1449 1448 1447 1446
1442 1442 1443 1445 1445 1446 1447 1448 1449 1450 1448 1447 1448 1449 1449 1449 1449 1449 1449 1449 1449 1449 1449 1449 1448 1448 1448 1447 1446 1446 1445 1444 1443 1442 1441 1440 1439 1437
1437 1437 1438 1439 1440 1440 1441 1442 1443 1444 1442 1441 1442 1443 1443 1443 1442 1442 1442 1442 1441 1441 1441 1441 1441 1441 1440 1439 1438 1438 1437 1436 1435 1434 1433 1432 1431 1430
1432 1432 1433 1434 1435 1436 1436 1437 1438 1438 1438 1436 1436 1436 1436 1436 1436 1435 1435 1434 1434 1434 1434 1433 1433 1433 1432 1432 1431 1430 1429 1428 1427 1426 1425 1424 1422 1421
1427 1428 1428 1429 1429 1430 1431 1431 1432 1432 1432 1431 1430 1430 1430 1429 1429 1428 1428 1427 1426 1426 1426 1426 1426 1425 1425 1424 1423 1422 1421 1420 1419 1418 1417 1415 1414 1412
1423 1423 1423 1423 1424 1425 1425 1426 1427 1427 1427 1426 1424 1424 1423 1423 1422 1421 1420 1419 1419 1419 1418 1418 1418 1418 1417 1417 1416 1414 1414 1412 1411 1410 1408 1407 1405 1404
1418 1418 1418 1418 1419 1419 1420 1420 1421 1421 1421 1420 1418 1418 1417 1416 1416 1416 1414 1413 1412 1412 1411 1410 1410 1409 1409 1409 1408 1407 1406 1405 1403 1402 1400 1399 1397 1396
1413 1413 1412 1413 1413 1414 1415 1416 1416 1416 1415 1414 1413 1412 1411 1411 1411 1411 1409 1408 1404 1405 1404 1403 1403 1401 1401 1401 1400 1400 1398 1397 1395 1394 1393 1391 1390 1389
1409 1408 1407 1407 1408 1408 1409 1410 1410 1410 1410 1409 1407 1406 1405 1406 1406 1405 1404 1403 1400 1399 1399 1396 1396 1394 1394 1394 1394 1393 1391 1389 1388 1386 1385 1384 1382 1381
1406 1404 1404 1403 1403 1403 1403 1403 1404 1404 1404 1403 1402 1401 1401 1401 1401 1400 1399 1397 1395 1395 1394 1391 1388 1387 1386 1386 1386 1385 1384 1382 1381 1379 1378 1377 1376 1375
1402 1401 1400 1399 1399 1399 1399 1398 1397 1397 1397 1397 1397 1396 1396 1396 1396 1395 1393 1391 1388 1387 1388 1386 1383 1380 1379 1379 1379 1378 1377 1376 1374 1372 1371 1370 1369 1368
1399 1398 1397 1396 1395 1395 1394 1393 1392 1391 1391 1390 1391 1391 1390 1390 1390 1389 1388 1386 1383 1381 1380 1381 1378 1377 1373 1371 1372 1372 1370 1369 1368 1366 1365 1364 1363 1362
1396 1394 1393 1392 1391 1390 1390 1389 1387 1387 1386 1385 1385 1384 1384 1384 1383 1383 1382 1381 1379 1377 1376 1376 1374 1373 1371 1367 1365 1366 1364 1363 1361 1360 1359 1358 1357 1357
1394 1392 1390 1389 1387 1386 1385 1384 1383 1383 1382 1380 1379 1378 1378 1377 1377 1377 1376 1375 1373 1372 1371 1371 1369 1368 1366 1363 1361 1359 1359 1357 1356 1354 1353 1353 1352 1352
1391 1389 1387 1386 1384 1382 1381 1380 1379 1378 1377 1376 1374 1374 1373 1372 1372 1371 1370 1369 1367 1366 1365 1364 1364 1363 1362 1359 1357 1355 1353 1351 1351 1350 1349 1348 1347 1346
1388 1386 1385 1383 1381 1379 1378 1376 1375 1374 1373 1372 1371 1370 1369 1368 1367 1366 1364 1362 1361 1360 1360 1359 1358 1357 1355 1354 1353 1350 1349 1347 1346 1345 1344 1343 1343 1342
1386 1384 1382 1380 1378 1376 1374 1373 1372 1371 1370 1369 1367 1366 1365 1363 1362 1362 1360 1359 1357 1355 1353 1353 1353 1352 1351 1349 1348 1346 1344 1343 1341 1340 1339 1338 1338 1338
1384 1381 1379 1377 1375 1373 1371 1370 1369 1368 1366 1365 1364 1363 1361 1360 1359 1358 1357 1356 1354 1352 1350 1349 1348 1346 1345 1344 1344 1342 1340 1338 1337 1336 1335 1334 1333 1334
1381 1378 1376 1374 1373 1371 1369 1367 1366 1365 1363 1362 1361 1360 1358 1357 1356 1355 1354 1352 1351 1349 1348 1346 1345 1343 1342 1340 1339 1339 1337 1335 1334 1333 1332 1331 1330 1329
1377 1376 1374 1372 1370 1368 1366 1365 1363 1362 1360 1359 1358 1357 1355 1354 1353 1352 1351 1349 1347 1346 1345 1343 1342 1341 1340 1339 1336 1335 1334 1332 1331 1329 1329 1328 1328 1327
1374 1372 1371 1369 1367 1365 1364 1362 1360 1359 1357 1356 1355 1354 1352 1351 1350 1349 1348 1346 1345 1343 1341 1340 1339 1339 1338 1337 1335 1332 1331 1331 1329 1328 1327 1326 1325 1325
1371 1369 1367 1365 1364 1362 1360 1358 1357 1355 1354 1353 1352 1350 1349 1348 1347 1346 1344 1343 1342 1340 1339 1338 1337 1336 1335 1334 1332 1331 1329 1329 1328 1327 1326 1326 1325 1324
1367 1365 1363 1362 1360 1358 1356 1355 1353 1352 1351 1350 1348 1347 1346 1345 1344 1342 1341 1340 1339 1337 1336 1335 1334 1333 1332 1332 1331 1329 1328 1327 1326 1326 1326 1326 1326 1326